Photometre #851[NE_1.6_Dp] Glasgow_MO AOT

File : 20220919_851.hum

19/09/2022,07:00:40,TEMP=10.0,BA=5.64,STAT.A,ExtBa=12.10
19/09/2022,07:03:23,TEMP=10.5,BA=5.64,STAT.D,ExtBa=12.10
19/09/2022,07:05:23,TEMP=10.9,BA=5.64,STAT.A,ExtBa=12.00
19/09/2022,07:09:23,TEMP=10.9,BA=5.64,STAT.D,ExtBa=12.10
19/09/2022,07:11:23,TEMP=11.3,BA=5.64,STAT.A,ExtBa=12.00
19/09/2022,07:17:06,TEMP=11.2,BA=5.64,STAT.A,ExtBa=12.00
19/09/2022,07:24:52,TEMP=11.3,BA=5.64,STAT.A,ExtBa=12.10
19/09/2022,07:34:30,TEMP=11.6,BA=5.64,STAT.A,ExtBa=12.10
19/09/2022,07:45:23,TEMP=11.8,BA=5.64,STAT.D,ExtBa=12.10
19/09/2022,07:47:23,TEMP=12.3,BA=5.64,STAT.B,ExtBa=12.00
19/09/2022,07:52:39,TEMP=12.1,BA=5.64,STAT.A,ExtBa=12.10
19/09/2022,07:59:18,TEMP=12.2,BA=5.64,STAT.A,ExtBa=12.10
19/09/2022,08:06:50,TEMP=12.4,BA=5.64,STAT.A,ExtBa=12.10
19/09/2022,08:15:29,TEMP=12.6,BA=5.64,STAT.A,ExtBa=12.10
19/09/2022,08:25:32,TEMP=12.9,BA=5.64,STAT.C,ExtBa=12.10
19/09/2022,08:36:24,TEMP=13.3,BA=5.64,STAT.D,ExtBa=12.10
19/09/2022,08:38:27,TEMP=13.9,BA=5.64,STAT.A,ExtBa=12.00
19/09/2022,08:48:24,TEMP=14.4,BA=5.64,STAT.D,ExtBa=12.10
19/09/2022,08:51:38,TEMP=14.8,BA=5.64,STAT.A,ExtBa=12.00
19/09/2022,09:03:24,TEMP=15.2,BA=5.64,STAT.D,ExtBa=12.10
19/09/2022,09:09:15,TEMP=15.4,BA=5.64,STAT.A,ExtBa=12.10
19/09/2022,09:12:43,TEMP=15.6,BA=5.64,STAT.F,ExtBa=12.10
19/09/2022,09:24:24,TEMP=15.6,BA=5.64,STAT.D,ExtBa=12.10
19/09/2022,09:27:42,TEMP=15.8,BA=5.64,STAT.D,ExtBa=12.10
19/09/2022,09:39:24,TEMP=15.7,BA=5.64,STAT.D,ExtBa=12.10
19/09/2022,09:42:42,TEMP=15.9,BA=5.64,STAT.D,ExtBa=12.10
19/09/2022,09:54:24,TEMP=15.6,BA=5.64,STAT.D,ExtBa=12.10
19/09/2022,09:57:42,TEMP=15.8,BA=5.64,STAT.D,ExtBa=12.10
19/09/2022,10:09:24,TEMP=15.3,BA=5.64,STAT.D,ExtBa=12.10
19/09/2022,10:12:44,TEMP=15.4,BA=5.64,STAT.F,ExtBa=12.10
19/09/2022,10:18:24,TEMP=15.2,BA=5.64,STAT.D,ExtBa=12.10
19/09/2022,10:27:42,TEMP=15.1,BA=5.64,STAT.D,ExtBa=12.10
19/09/2022,10:39:24,TEMP=15.0,BA=5.64,STAT.D,ExtBa=12.10
19/09/2022,10:42:42,TEMP=15.2,BA=5.64,STAT.D,ExtBa=12.10
19/09/2022,10:54:24,TEMP=15.2,BA=5.64,STAT.D,ExtBa=12.10
19/09/2022,10:57:42,TEMP=15.5,BA=5.64,STAT.D,ExtBa=12.10
19/09/2022,11:09:24,TEMP=15.7,BA=5.64,STAT.D,ExtBa=12.10
19/09/2022,11:12:44,TEMP=15.9,BA=5.64,STAT.F,ExtBa=12.10
19/09/2022,11:24:24,TEMP=15.8,BA=5.64,STAT.D,ExtBa=12.10
19/09/2022,11:27:42,TEMP=16.0,BA=5.64,STAT.D,ExtBa=12.10
19/09/2022,11:39:24,TEMP=16.3,BA=5.64,STAT.D,ExtBa=12.10
19/09/2022,11:42:42,TEMP=16.6,BA=5.60,STAT.D,ExtBa=12.00
19/09/2022,11:54:24,TEMP=17.1,BA=5.64,STAT.D,ExtBa=12.10
19/09/2022,11:57:42,TEMP=17.4,BA=5.64,STAT.D,ExtBa=12.00
19/09/2022,12:09:24,TEMP=17.6,BA=5.64,STAT.D,ExtBa=12.10
19/09/2022,12:12:44,TEMP=17.9,BA=5.60,STAT.F,ExtBa=12.10
19/09/2022,12:24:24,TEMP=18.0,BA=5.64,STAT.D,ExtBa=12.10
19/09/2022,12:27:42,TEMP=18.3,BA=5.64,STAT.D,ExtBa=12.00
19/09/2022,12:30:24,TEMP=18.5,BA=5.64,STAT.D,ExtBa=12.00
19/09/2022,12:42:24,TEMP=18.4,BA=5.64,STAT.D,ExtBa=12.10
19/09/2022,12:44:23,TEMP=18.8,BA=5.64,STAT.D,ExtBa=12.00
19/09/2022,12:57:24,TEMP=18.2,BA=5.64,STAT.D,ExtBa=12.10
19/09/2022,12:59:21,TEMP=18.6,BA=5.64,STAT.D,ExtBa=12.00
19/09/2022,13:12:24,TEMP=18.2,BA=5.64,STAT.D,ExtBa=12.10
19/09/2022,13:14:27,TEMP=18.6,BA=5.64,STAT.F,ExtBa=12.00
19/09/2022,13:27:42,TEMP=18.9,BA=5.56,STAT.D,ExtBa=12.00
19/09/2022,13:39:24,TEMP=18.4,BA=5.64,STAT.D,ExtBa=12.00
19/09/2022,13:42:42,TEMP=18.5,BA=5.60,STAT.D,ExtBa=12.00
19/09/2022,13:54:24,TEMP=18.1,BA=5.64,STAT.D,ExtBa=12.00
19/09/2022,13:57:42,TEMP=18.2,BA=5.64,STAT.D,ExtBa=12.00
19/09/2022,14:09:24,TEMP=18.1,BA=5.64,STAT.D,ExtBa=12.00
19/09/2022,14:12:44,TEMP=18.3,BA=5.60,STAT.F,ExtBa=12.00
19/09/2022,14:24:24,TEMP=18.1,BA=5.64,STAT.D,ExtBa=12.00
19/09/2022,14:27:42,TEMP=18.3,BA=5.64,STAT.D,ExtBa=12.00
19/09/2022,14:39:24,TEMP=18.2,BA=5.64,STAT.D,ExtBa=12.10
19/09/2022,14:42:42,TEMP=18.3,BA=5.60,STAT.D,ExtBa=12.00
19/09/2022,14:54:24,TEMP=18.1,BA=5.64,STAT.D,ExtBa=12.10
19/09/2022,14:57:42,TEMP=18.2,BA=5.64,STAT.D,ExtBa=12.00
19/09/2022,15:09:24,TEMP=17.9,BA=5.64,STAT.D,ExtBa=12.10
19/09/2022,15:12:43,TEMP=18.1,BA=5.60,STAT.F,ExtBa=12.00
19/09/2022,15:16:11,TEMP=18.1,BA=5.60,STAT.A,ExtBa=12.00
19/09/2022,15:27:24,TEMP=17.6,BA=5.64,STAT.D,ExtBa=12.10
19/09/2022,15:33:48,TEMP=17.5,BA=5.64,STAT.A,ExtBa=12.10
19/09/2022,15:45:24,TEMP=17.2,BA=5.64,STAT.D,ExtBa=12.10
19/09/2022,15:48:04,TEMP=17.4,BA=5.64,STAT.A,ExtBa=12.00
19/09/2022,15:59:54,TEMP=16.9,BA=5.64,STAT.C,ExtBa=12.00
19/09/2022,16:09:57,TEMP=16.7,BA=5.60,STAT.A,ExtBa=12.00
19/09/2022,16:18:36,TEMP=16.6,BA=5.60,STAT.A,ExtBa=12.00
19/09/2022,16:26:08,TEMP=16.5,BA=5.60,STAT.A,ExtBa=12.00
19/09/2022,16:32:47,TEMP=16.5,BA=5.64,STAT.A,ExtBa=12.00
19/09/2022,16:38:41,TEMP=16.4,BA=5.64,STAT.B,ExtBa=12.00
19/09/2022,16:50:56,TEMP=16.2,BA=5.64,STAT.A,ExtBa=12.10
19/09/2022,17:00:34,TEMP=16.1,BA=5.64,STAT.A,ExtBa=12.10
19/09/2022,17:08:20,TEMP=16.0,BA=5.64,STAT.A,ExtBa=12.10
19/09/2022,17:14:46,TEMP=15.9,BA=5.56,STAT.A,ExtBa=12.10
19/09/2022,17:18:23,TEMP=16.0,BA=5.56,STAT.D,ExtBa=12.00
19/09/2022,17:20:22,TEMP=16.3,BA=5.64,STAT.A,ExtBa=12.00
19/09/2022,17:24:46,TEMP=15.9,BA=5.64,STAT.A,ExtBa=12.00